Location: Glencliff
(36.1226°N, 86.7183°W)
Time: 05:55:16
(UTC+00:00)

Cosmos 1602 - Pass Details

Date: 25 August 2019
Orbit: 515 x 534 km, 82.5° (Epoch: 21 September)

Event Time Altitude Azimuth Distance (km) Brightness Sun altitude
Rises 01:08:01 0° 182° (S) 2,622 7.1 -9.0°
Reaches altitude 10° 01:10:08 10° 181° (S) 1,738 6.2 -9.4°
Maximum altitude 01:13:56 76° 96° (E) 536 3.6 -10.1°
Drops below altitude 10° 01:17:46 10° 10° (N) 1,748 6.5 -10.8°
Sets 01:19:54 0° 9° (N) 2,639 7.5 -11.2°
